Sitka, Alaska, United States (99835)
Lat: 57.05N, Lon: 135.33W
Wx Zone: AKZ023
Local Info
Past Weather Observations for Tuesday, November 18, 2014

NOTE: This archive is for the closest National Weather Service station to Sitka. Information may differ from the station used for current weather conditions.

Click here for Long-term Archive

Time Weather Temperature Dewpoint Humidity Pressure Winds Precip Visibility
23:53
Overcast
Light Rain
46°F / 8°C 46°F / 8°C 100% 29.8 in
(1009 mb)
SSE 10.4 mph
(SSE 17 kph)
0.07 in
(1.78 mm)
6SM
22:53
Overcast
Light Rain
46°F / 8°C 46°F / 8°C 100% 29.8 in
(1009 mb)
NW 3.5 mph
(NW 6 kph)
0.08 in
(2.03 mm)
6SM
21:53
Overcast
Light Rain
46°F / 8°C 46°F / 8°C 100% 29.77 in
(1008 mb)
Calm 0.09 in
(2.29 mm)
8SM
20:53
Overcast
Light Rain
50°F / 10°C 45°F / 7°C 82% 29.77 in
(1008 mb)
SE 13.8 mph
(SE 22 kph)
0.01 in
(0.25 mm)
10SM
19:53
Overcast
Light Rain
50°F / 10°C 43°F / 6°C 76% 29.77 in
(1008 mb)
ESE 17.3 mph
(ESE 28 kph)
0.04 in
(1.02 mm)
10SM
18:53
Overcast
Light Rain
50°F / 10°C 43°F / 6°C 76% 29.74 in
(1007 mb)
ESE 17.3 mph
(ESE 28 kph)
0.04 in
(1.02 mm)
10SM
17:53
Overcast
Light Rain
52°F / 11°C 43°F / 6°C 72% 29.74 in
(1007 mb)
ESE 19.6 mph
(ESE 32 kph)
0.00 in
(0.00 mm)
9SM
16:53
Overcast
50°F / 10°C 43°F / 6°C 76% 29.74 in
(1007 mb)
ESE 19.6 mph
(ESE 32 kph)
- 10SM
15:53
Overcast
48°F / 9°C 41°F / 5°C 76% 29.74 in
(1007 mb)
ESE 18.4 mph
(ESE 30 kph)
0.00 in
(0.00 mm)
10SM
14:53
Overcast
Light Rain
48°F / 9°C 43°F / 6°C 82% 29.74 in
(1007 mb)
ESE 21.9 mph
(ESE 35 kph)
0.09 in
(2.29 mm)
10SM
13:53
Overcast
Rain
48°F / 9°C 43°F / 6°C 82% 29.74 in
(1007 mb)
ESE 25.3 mph
(ESE 41 kph)
0.08 in
(2.03 mm)
5SM
12:53
Overcast
Light Rain
50°F / 10°C 39°F / 4°C 67% 29.74 in
(1007 mb)
ESE 26.5 mph
(ESE 43 kph)
0.03 in
(0.76 mm)
10SM
11:53
Overcast
Rain
48°F / 9°C 41°F / 5°C 76% 29.77 in
(1008 mb)
ESE 19.6 mph
(ESE 32 kph)
0.04 in
(1.02 mm)
6SM
10:53
Overcast
Light Rain
50°F / 10°C 39°F / 4°C 67% 29.77 in
(1008 mb)
E 25.3 mph
(E 41 kph)
0.00 in
(0.00 mm)
10SM
09:53
Overcast
Light Rain
48°F / 9°C 39°F / 4°C 71% 29.77 in
(1008 mb)
E 26.5 mph
(E 43 kph)
0.00 in
(0.00 mm)
10SM
08:53
Overcast
48°F / 9°C 39°F / 4°C 71% 29.8 in
(1009 mb)
ESE 19.6 mph
(ESE 32 kph)
0.02 in
(0.51 mm)
10SM
07:53
Overcast
Light Rain
50°F / 10°C 36°F / 2°C 58% 29.77 in
(1008 mb)
ESE 24.2 mph
(ESE 39 kph)
0.00 in
(0.00 mm)
10SM
06:53
Overcast
Light Rain
52°F / 11°C 34°F / 1°C 50% 29.8 in
(1009 mb)
ESE 17.3 mph
(ESE 28 kph)
0.00 in
(0.00 mm)
10SM
05:53
Partly Cloudy
Light Rain
52°F / 11°C 32°F / 0°C 47% 29.83 in
(1010 mb)
SE 18.4 mph
(SE 30 kph)
0.00 in
(0.00 mm)
10SM
04:53
Partly Cloudy
52°F / 11°C 28°F / -2°C 41% 29.83 in
(1010 mb)
ESE 20.7 mph
(ESE 33 kph)
- 10SM
03:53
Clear
52°F / 11°C 30°F / -1°C 44% 29.89 in
(1012 mb)
SE 16.1 mph
(SE 26 kph)
- 10SM
02:53
Clear
50°F / 10°C 30°F / -1°C 47% 29.89 in
(1012 mb)
E 23 mph
(E 37 kph)
- 10SM
01:53
Clear
43°F / 6°C 39°F / 4°C 87% 29.92 in
(1013 mb)
Variable 4.6 mph
(Variable 7 kph)
- 10SM
00:53
Clear
43°F / 6°C 39°F / 4°C 87% 29.95 in
(1014 mb)
Calm - 10SM
Time Weather Temperature Dewpoint Humidity Pressure Winds Precip Visibility


Weather for websites

WeatherForYou.com, LLC is not responsible for any damages or problems caused by this service. Current weather conditions are obtained from the closest station including government and personal stations which may have varying degrees of accuracy. Weather forecasts are derived from the NOAA NDFD. Like all things, this site belongs to Jesus Christ... He just trusts me to maintain it. If you have any questions or comments email webmaster@weatherforyou.com

Copyright © 2014, WeatherForYou.com LLC. All rights reserved.